カタログに戻る

DELTA 4 R/B

運用中MEO
NORAD 57100·ROCKET BODY·🇺🇸 United States

打ち上げ Jun 22, 2023 から Cape Canaveral Space Force Station

Loading…

次のパス (今後24時間)

TLE

最新Source: Space-Track

元期: Sep 13, 2026, 13:25 UTC

1 57100U 23089B   26256.55930172 -.00000225  00000-0  00000-0 0  9998
2 57100   2.3425 174.5311 0178009  83.6447 278.2980  0.96427099  8303

AllMySatでDELTA 4 R/Bをリアルタイム追跡

Download on the App Store